Year,Month,Day,Hour,Minute,Value (Times are PST for temperature in C)
2007,07,10,00,00,19.90
2007,07,10,00,01,19.90
2007,07,10,00,02,19.90
2007,07,10,00,03,19.90
2007,07,10,00,04,19.90
2007,07,10,00,05,19.90
2007,07,10,00,06,19.80
2007,07,10,00,07,19.80
2007,07,10,00,08,19.80
2007,07,10,00,09,19.70
2007,07,10,00,10,19.60
2007,07,10,00,11,19.60
2007,07,10,00,12,19.60
2007,07,10,00,13,19.60
2007,07,10,00,14,19.60
2007,07,10,00,15,19.50
2007,07,10,00,16,19.50
2007,07,10,00,17,19.50
2007,07,10,00,18,19.60
2007,07,10,00,19,19.50
2007,07,10,00,20,19.50
2007,07,10,00,21,19.40
2007,07,10,00,22,19.40
2007,07,10,00,23,19.30
2007,07,10,00,24,19.20
2007,07,10,00,25,19.20
2007,07,10,00,26,19.10
2007,07,10,00,27,19.10
2007,07,10,00,28,19.10
2007,07,10,00,29,19.10
2007,07,10,00,30,19.00
2007,07,10,00,31,18.90
2007,07,10,00,32,18.80
2007,07,10,00,33,18.80
2007,07,10,00,34,18.70
2007,07,10,00,35,18.70
2007,07,10,00,36,18.60
2007,07,10,00,37,18.60
2007,07,10,00,38,18.60
2007,07,10,00,39,18.60
2007,07,10,00,40,18.50
2007,07,10,00,41,18.60
2007,07,10,00,42,18.60
2007,07,10,00,43,18.60
2007,07,10,00,44,18.50
2007,07,10,00,45,18.50
2007,07,10,00,46,18.50
2007,07,10,00,47,18.50
2007,07,10,00,48,18.50
2007,07,10,00,49,18.40
2007,07,10,00,50,18.40
2007,07,10,00,51,18.30
2007,07,10,00,52,18.30
2007,07,10,00,53,18.30
2007,07,10,00,54,18.20
2007,07,10,00,55,18.20
2007,07,10,00,56,18.20
2007,07,10,00,57,18.20
2007,07,10,00,58,18.20
2007,07,10,00,59,18.10
2007,07,10,01,00,18.10
2007,07,10,01,01,18.00
2007,07,10,01,02,18.00
2007,07,10,01,03,17.90
2007,07,10,01,04,17.90
2007,07,10,01,05,17.90
2007,07,10,01,06,17.90
2007,07,10,01,07,17.90
2007,07,10,01,08,17.90
2007,07,10,01,09,17.90
2007,07,10,01,10,17.90
2007,07,10,01,11,17.90
2007,07,10,01,12,18.00
2007,07,10,01,13,18.00
2007,07,10,01,14,18.00
2007,07,10,01,15,18.00
2007,07,10,01,16,18.00
2007,07,10,01,17,18.10
2007,07,10,01,18,18.10
2007,07,10,01,19,18.10
2007,07,10,01,20,18.10
2007,07,10,01,21,18.10
2007,07,10,01,22,18.10
2007,07,10,01,23,18.10
2007,07,10,01,24,18.10
2007,07,10,01,25,18.10
2007,07,10,01,26,18.10
2007,07,10,01,27,18.00
2007,07,10,01,28,18.00
2007,07,10,01,29,18.00
2007,07,10,01,30,18.00
2007,07,10,01,31,18.00
2007,07,10,01,32,18.00
2007,07,10,01,33,18.00
2007,07,10,01,34,18.00
2007,07,10,01,35,18.00
2007,07,10,01,36,17.90
2007,07,10,01,37,17.90
2007,07,10,01,38,17.80
2007,07,10,01,39,17.80
2007,07,10,01,40,17.70
2007,07,10,01,41,17.70
2007,07,10,01,42,17.60
2007,07,10,01,43,17.60
2007,07,10,01,44,17.60
2007,07,10,01,45,17.60
2007,07,10,01,46,17.50
2007,07,10,01,47,17.50
2007,07,10,01,48,17.50
2007,07,10,01,49,17.40
2007,07,10,01,50,17.40
2007,07,10,01,51,17.40
2007,07,10,01,52,17.40
2007,07,10,01,53,17.30
2007,07,10,01,54,17.30
2007,07,10,01,55,17.30
2007,07,10,01,56,17.20
2007,07,10,01,57,17.20
2007,07,10,01,58,17.20
2007,07,10,01,59,17.30
2007,07,10,02,00,17.30
2007,07,10,02,01,17.30
2007,07,10,02,02,17.30
2007,07,10,02,03,17.30
2007,07,10,02,04,17.30
2007,07,10,02,05,17.20
2007,07,10,02,06,17.20
2007,07,10,02,07,17.10
2007,07,10,02,08,17.10
2007,07,10,02,09,17.10
2007,07,10,02,10,17.00
2007,07,10,02,11,17.00
2007,07,10,02,12,16.90
2007,07,10,02,13,16.90
2007,07,10,02,14,16.80
2007,07,10,02,15,16.80
2007,07,10,02,16,16.80
2007,07,10,02,17,16.70
2007,07,10,02,18,16.70
2007,07,10,02,19,16.70
2007,07,10,02,20,16.60
2007,07,10,02,21,16.60
2007,07,10,02,22,16.50
2007,07,10,02,23,16.50
2007,07,10,02,24,16.40
2007,07,10,02,25,16.40
2007,07,10,02,26,16.40
2007,07,10,02,27,16.30
2007,07,10,02,28,16.30
2007,07,10,02,29,16.30
2007,07,10,02,30,16.30
2007,07,10,02,31,16.30
2007,07,10,02,32,16.30
2007,07,10,02,33,16.30
2007,07,10,02,34,16.30
2007,07,10,02,35,16.20
2007,07,10,02,36,16.20
2007,07,10,02,37,16.20
2007,07,10,02,38,16.20
2007,07,10,02,39,16.20
2007,07,10,02,40,16.20
2007,07,10,02,41,16.20
2007,07,10,02,42,16.10
2007,07,10,02,43,16.10
2007,07,10,02,44,16.10
2007,07,10,02,45,16.10
2007,07,10,02,46,16.00
2007,07,10,02,47,16.00
2007,07,10,02,48,16.00
2007,07,10,02,49,16.00
2007,07,10,02,50,15.90
2007,07,10,02,51,15.90
2007,07,10,02,52,15.80
2007,07,10,02,53,15.80
2007,07,10,02,54,15.80
2007,07,10,02,55,15.80
2007,07,10,02,56,15.70
2007,07,10,02,57,15.70
2007,07,10,02,58,15.70
2007,07,10,02,59,15.70
2007,07,10,03,00,15.60
2007,07,10,03,01,15.60
2007,07,10,03,02,15.60
2007,07,10,03,03,15.60
2007,07,10,03,04,15.50
2007,07,10,03,05,15.50
2007,07,10,03,06,15.50
2007,07,10,03,07,15.50
2007,07,10,03,08,15.50
2007,07,10,03,09,15.50
2007,07,10,03,10,15.50
2007,07,10,03,11,15.50
2007,07,10,03,12,15.40
2007,07,10,03,13,15.40
2007,07,10,03,14,15.40
2007,07,10,03,15,15.40
2007,07,10,03,16,15.40
2007,07,10,03,17,15.30
2007,07,10,03,18,15.30
2007,07,10,03,19,15.30
2007,07,10,03,20,15.30
2007,07,10,03,21,15.30
2007,07,10,03,22,15.30
2007,07,10,03,23,15.20
2007,07,10,03,24,15.20
2007,07,10,03,25,15.20
2007,07,10,03,26,15.20
2007,07,10,03,27,15.10
2007,07,10,03,28,15.00
2007,07,10,03,29,15.00
2007,07,10,03,30,15.00
2007,07,10,03,31,15.00
2007,07,10,03,32,15.00
2007,07,10,03,33,15.00
2007,07,10,03,34,15.00
2007,07,10,03,35,15.00
2007,07,10,03,36,14.90
2007,07,10,03,37,14.90
2007,07,10,03,38,14.80
2007,07,10,03,39,14.80
2007,07,10,03,40,14.80
2007,07,10,03,41,14.80
2007,07,10,03,42,14.80
2007,07,10,03,43,14.80
2007,07,10,03,44,14.90
2007,07,10,03,45,15.00
2007,07,10,03,46,15.00
2007,07,10,03,47,15.00
2007,07,10,03,48,15.00
2007,07,10,03,49,15.00
2007,07,10,03,50,14.90
2007,07,10,03,51,14.90
2007,07,10,03,52,14.80
2007,07,10,03,53,14.80
2007,07,10,03,54,14.70
2007,07,10,03,55,14.60
2007,07,10,03,56,14.50
2007,07,10,03,57,14.40
2007,07,10,03,58,14.30
2007,07,10,03,59,14.30
2007,07,10,04,00,14.30
2007,07,10,04,01,14.30
2007,07,10,04,02,14.30
2007,07,10,04,03,14.40
2007,07,10,04,04,14.50
2007,07,10,04,05,14.50
2007,07,10,04,06,14.60
2007,07,10,04,07,14.60
2007,07,10,04,08,14.70
2007,07,10,04,09,14.90
2007,07,10,04,10,15.00
2007,07,10,04,11,15.20
2007,07,10,04,12,15.40
2007,07,10,04,13,15.50
2007,07,10,04,14,15.50
2007,07,10,04,15,15.60
2007,07,10,04,16,15.60
2007,07,10,04,17,15.60
2007,07,10,04,18,15.60
2007,07,10,04,19,15.50
2007,07,10,04,20,15.50
2007,07,10,04,21,15.50
2007,07,10,04,22,15.40
2007,07,10,04,23,15.40
2007,07,10,04,24,15.30
2007,07,10,04,25,15.30
2007,07,10,04,26,15.30
2007,07,10,04,27,15.20
2007,07,10,04,28,15.10
2007,07,10,04,29,15.10
2007,07,10,04,30,15.00
2007,07,10,04,31,15.00
2007,07,10,04,32,15.00
2007,07,10,04,33,15.00
2007,07,10,04,34,15.00
2007,07,10,04,35,15.00
2007,07,10,04,36,15.00
2007,07,10,04,37,15.00
2007,07,10,04,38,15.00
2007,07,10,04,39,15.00
2007,07,10,04,40,15.00
2007,07,10,04,41,14.90
2007,07,10,04,42,14.90
2007,07,10,04,43,14.90
2007,07,10,04,44,14.90
2007,07,10,04,45,14.90
2007,07,10,04,46,14.90
2007,07,10,04,47,14.90
2007,07,10,04,48,14.80
2007,07,10,04,49,14.80
2007,07,10,04,50,14.80
2007,07,10,04,51,14.80
2007,07,10,04,52,14.80
2007,07,10,04,53,14.80
2007,07,10,04,54,14.70
2007,07,10,04,55,14.70
2007,07,10,04,56,14.60
2007,07,10,04,57,14.60
2007,07,10,04,58,14.50
2007,07,10,04,59,14.50
2007,07,10,05,00,14.40
2007,07,10,05,01,14.40
2007,07,10,05,02,14.40
2007,07,10,05,03,14.40
2007,07,10,05,04,14.40
2007,07,10,05,05,14.40
2007,07,10,05,06,14.40
2007,07,10,05,07,14.40
2007,07,10,05,08,14.30
2007,07,10,05,09,14.30
2007,07,10,05,10,14.30
2007,07,10,05,11,14.30
2007,07,10,05,12,14.30
2007,07,10,05,13,14.30
2007,07,10,05,14,14.20
2007,07,10,05,15,14.20
2007,07,10,05,16,14.20
2007,07,10,05,17,14.10
2007,07,10,05,18,14.10
2007,07,10,05,19,14.10
2007,07,10,05,20,14.00
2007,07,10,05,21,14.00
2007,07,10,05,22,14.00
2007,07,10,05,23,13.90
2007,07,10,05,24,13.90
2007,07,10,05,25,13.90
2007,07,10,05,26,13.90
2007,07,10,05,27,13.90
2007,07,10,05,28,13.90
2007,07,10,05,29,13.90
2007,07,10,05,30,13.80
2007,07,10,05,31,13.80
2007,07,10,05,32,13.80
2007,07,10,05,33,13.70
2007,07,10,05,34,13.70
2007,07,10,05,35,13.70
2007,07,10,05,36,13.70
2007,07,10,05,37,13.70
2007,07,10,05,38,13.70
2007,07,10,05,39,13.70
2007,07,10,05,40,13.70
2007,07,10,05,41,13.70
2007,07,10,05,42,13.70
2007,07,10,05,43,13.70
2007,07,10,05,44,13.70
2007,07,10,05,45,13.70
2007,07,10,05,46,13.70
2007,07,10,05,47,13.70
2007,07,10,05,48,13.60
2007,07,10,05,49,13.60
2007,07,10,05,50,13.60
2007,07,10,05,51,13.60
2007,07,10,05,52,13.60
2007,07,10,05,53,13.60
2007,07,10,05,54,13.60
2007,07,10,05,55,13.70
2007,07,10,05,56,13.70
2007,07,10,05,57,13.80
2007,07,10,05,58,13.80
2007,07,10,05,59,13.90
2007,07,10,06,00,13.90
2007,07,10,06,01,13.90
2007,07,10,06,02,13.90
2007,07,10,06,03,13.90
2007,07,10,06,04,13.90
2007,07,10,06,05,14.00
2007,07,10,06,06,14.00
2007,07,10,06,07,14.00
2007,07,10,06,08,14.10
2007,07,10,06,09,14.10
2007,07,10,06,10,14.20
2007,07,10,06,11,14.20
2007,07,10,06,12,14.20
2007,07,10,06,13,14.30
2007,07,10,06,14,14.40
2007,07,10,06,15,14.60
2007,07,10,06,16,14.60
2007,07,10,06,17,14.70
2007,07,10,06,18,14.70
2007,07,10,06,19,14.80
2007,07,10,06,20,14.80
2007,07,10,06,21,15.00
2007,07,10,06,22,15.00
2007,07,10,06,23,15.00
2007,07,10,06,24,15.10
2007,07,10,06,25,15.20
2007,07,10,06,26,15.30
2007,07,10,06,27,15.40
2007,07,10,06,28,15.60
2007,07,10,06,29,15.70
2007,07,10,06,30,15.80
2007,07,10,06,31,16.00
2007,07,10,06,32,16.10
2007,07,10,06,33,16.10
2007,07,10,06,34,16.10
2007,07,10,06,35,16.20
2007,07,10,06,36,16.20
2007,07,10,06,37,16.30
2007,07,10,06,38,16.40
2007,07,10,06,39,16.40
2007,07,10,06,40,16.50
2007,07,10,06,41,16.60
2007,07,10,06,42,16.60
2007,07,10,06,43,16.70
2007,07,10,06,44,16.70
2007,07,10,06,45,16.70
2007,07,10,06,46,16.80
2007,07,10,06,47,16.90
2007,07,10,06,48,17.00
2007,07,10,06,49,17.10
2007,07,10,06,50,17.20
2007,07,10,06,51,17.30
2007,07,10,06,52,17.30
2007,07,10,06,53,17.40
2007,07,10,06,54,17.40
2007,07,10,06,55,17.50
2007,07,10,06,56,17.50
2007,07,10,06,57,17.50
2007,07,10,06,58,17.60
2007,07,10,06,59,17.60
2007,07,10,07,00,17.60
2007,07,10,07,01,17.60
2007,07,10,07,02,17.70
2007,07,10,07,03,17.70
2007,07,10,07,04,17.70
2007,07,10,07,05,17.80
2007,07,10,07,06,17.80
2007,07,10,07,07,17.90
2007,07,10,07,08,18.00
2007,07,10,07,09,18.10
2007,07,10,07,10,18.10
2007,07,10,07,11,18.20
2007,07,10,07,12,18.20
2007,07,10,07,13,18.30
2007,07,10,07,14,18.40
2007,07,10,07,15,18.50
2007,07,10,07,16,18.60
2007,07,10,07,17,18.60
2007,07,10,07,18,18.70
2007,07,10,07,19,18.70
2007,07,10,07,20,18.80
2007,07,10,07,21,18.80
2007,07,10,07,22,18.90
2007,07,10,07,23,19.00
2007,07,10,07,24,19.00
2007,07,10,07,25,19.10
2007,07,10,07,26,19.20
2007,07,10,07,27,19.20
2007,07,10,07,28,19.30
2007,07,10,07,29,19.30
2007,07,10,07,30,19.30
2007,07,10,07,31,19.40
2007,07,10,07,32,19.40
2007,07,10,07,33,19.50
2007,07,10,07,34,19.60
2007,07,10,07,35,19.70
2007,07,10,07,36,19.80
2007,07,10,07,37,19.80
2007,07,10,07,38,19.90
2007,07,10,07,39,20.00
2007,07,10,07,40,20.10
2007,07,10,07,41,20.30
2007,07,10,07,42,20.40
2007,07,10,07,43,20.60
2007,07,10,07,44,20.80
2007,07,10,07,45,20.90
2007,07,10,07,46,21.10
2007,07,10,07,47,21.30
2007,07,10,07,48,21.30
2007,07,10,07,49,21.30
2007,07,10,07,50,21.30
2007,07,10,07,51,21.30
2007,07,10,07,52,21.30
2007,07,10,07,53,21.30
2007,07,10,07,54,21.30
2007,07,10,07,55,21.30
2007,07,10,07,56,21.20
2007,07,10,07,57,21.20
2007,07,10,07,58,21.10
2007,07,10,07,59,21.10
2007,07,10,08,00,21.00
2007,07,10,08,01,21.10
2007,07,10,08,02,21.10
2007,07,10,08,03,21.10
2007,07,10,08,04,21.10
2007,07,10,08,05,21.00
2007,07,10,08,06,21.00
2007,07,10,08,07,21.00
2007,07,10,08,08,21.00
2007,07,10,08,09,20.90
2007,07,10,08,10,20.90
2007,07,10,08,11,20.90
2007,07,10,08,12,20.90
2007,07,10,08,13,20.90
2007,07,10,08,14,21.00
2007,07,10,08,15,21.10
2007,07,10,08,16,21.10
2007,07,10,08,17,21.20
2007,07,10,08,18,21.20
2007,07,10,08,19,21.20
2007,07,10,08,20,21.30
2007,07,10,08,21,21.30
2007,07,10,08,22,21.40
2007,07,10,08,23,21.50
2007,07,10,08,24,21.50
2007,07,10,08,25,21.60
2007,07,10,08,26,21.60
2007,07,10,08,27,21.70
2007,07,10,08,28,21.70
2007,07,10,08,29,21.70
2007,07,10,08,30,21.70
2007,07,10,08,31,21.70
2007,07,10,08,32,21.70
2007,07,10,08,33,21.70
2007,07,10,08,34,21.70
2007,07,10,08,35,21.70
2007,07,10,08,36,21.70
2007,07,10,08,37,21.70
2007,07,10,08,38,21.60
2007,07,10,08,39,21.60
2007,07,10,08,40,21.60
2007,07,10,08,41,21.60
2007,07,10,08,42,21.60
2007,07,10,08,43,21.60
2007,07,10,08,44,21.60
2007,07,10,08,45,21.60
2007,07,10,08,46,21.50
2007,07,10,08,47,21.50
2007,07,10,08,48,21.40
2007,07,10,08,49,21.50
2007,07,10,08,50,21.50
2007,07,10,08,51,21.60
2007,07,10,08,52,21.60
2007,07,10,08,53,21.60
2007,07,10,08,54,21.60
2007,07,10,08,55,21.60
2007,07,10,08,56,21.50
2007,07,10,08,57,21.50
2007,07,10,08,58,21.60
2007,07,10,08,59,21.60
2007,07,10,09,00,21.60
2007,07,10,09,01,21.70
2007,07,10,09,02,21.80
2007,07,10,09,03,21.80
2007,07,10,09,04,21.80
2007,07,10,09,05,21.90
2007,07,10,09,06,21.90
2007,07,10,09,07,21.90
2007,07,10,09,08,22.00
2007,07,10,09,09,22.10
2007,07,10,09,10,22.20
2007,07,10,09,11,22.30
2007,07,10,09,12,22.40
2007,07,10,09,13,22.50
2007,07,10,09,14,22.60
2007,07,10,09,15,22.70
2007,07,10,09,16,22.70
2007,07,10,09,17,22.80
2007,07,10,09,18,22.80
2007,07,10,09,19,22.80
2007,07,10,09,20,22.80
2007,07,10,09,21,22.70
2007,07,10,09,22,22.80
2007,07,10,09,23,22.80
2007,07,10,09,24,22.90
2007,07,10,09,25,22.90
2007,07,10,09,26,22.90
2007,07,10,09,27,22.90
2007,07,10,09,28,22.90
2007,07,10,09,29,22.80
2007,07,10,09,30,22.80
2007,07,10,09,31,22.90
2007,07,10,09,32,22.90
2007,07,10,09,33,22.90
2007,07,10,09,34,23.00
2007,07,10,09,35,23.00
2007,07,10,09,36,23.10
2007,07,10,09,37,23.10
2007,07,10,09,38,23.10
2007,07,10,09,39,23.20
2007,07,10,09,40,23.20
2007,07,10,09,41,23.30
2007,07,10,09,42,23.30
2007,07,10,09,43,23.40
2007,07,10,09,44,23.40
2007,07,10,09,45,23.30
2007,07,10,09,46,23.20
2007,07,10,09,47,23.10
2007,07,10,09,48,23.00
2007,07,10,09,49,23.00
2007,07,10,09,50,23.00
2007,07,10,09,51,23.00
2007,07,10,09,52,23.00
2007,07,10,09,53,23.10
2007,07,10,09,56,23.30
2007,07,10,09,57,23.30
2007,07,10,09,58,23.30
2007,07,10,09,59,23.30
2007,07,10,10,00,23.30
2007,07,10,10,01,23.30
2007,07,10,10,02,23.30
2007,07,10,10,03,23.20
2007,07,10,10,04,23.20
2007,07,10,10,05,23.20
2007,07,10,10,06,23.20
2007,07,10,10,07,23.20
2007,07,10,10,08,23.10
2007,07,10,10,09,23.10
2007,07,10,10,10,23.10
2007,07,10,10,11,23.10
2007,07,10,10,12,23.00
2007,07,10,10,13,23.00
2007,07,10,10,14,23.00
2007,07,10,10,15,23.00
2007,07,10,10,16,23.10
2007,07,10,10,17,23.20
2007,07,10,10,18,23.20
2007,07,10,10,19,23.20
2007,07,10,10,20,23.20
2007,07,10,10,21,23.20
2007,07,10,10,22,23.20
2007,07,10,10,23,23.30
2007,07,10,10,24,23.40
2007,07,10,10,25,23.50
2007,07,10,10,26,23.50
2007,07,10,10,27,23.50
2007,07,10,10,28,23.60
2007,07,10,10,29,23.70
2007,07,10,10,30,23.70
2007,07,10,10,31,23.70
2007,07,10,10,32,23.70
2007,07,10,10,33,23.80
2007,07,10,10,34,23.80
2007,07,10,10,35,23.80
2007,07,10,10,36,23.70
2007,07,10,10,37,23.60
2007,07,10,10,38,23.50
2007,07,10,10,39,23.60
2007,07,10,10,40,23.60
2007,07,10,10,41,23.80
2007,07,10,10,42,23.80
2007,07,10,10,43,23.80
2007,07,10,10,44,23.80
2007,07,10,10,45,23.80
2007,07,10,10,46,23.80
2007,07,10,10,47,23.70
2007,07,10,10,48,23.60
2007,07,10,10,49,23.50
2007,07,10,10,50,23.60
2007,07,10,10,51,23.60
2007,07,10,10,52,23.70
2007,07,10,10,53,23.60
2007,07,10,10,54,23.50
2007,07,10,10,55,23.30
2007,07,10,10,56,23.20
2007,07,10,10,57,23.20
2007,07,10,10,58,23.20
2007,07,10,10,59,23.20
2007,07,10,11,00,23.30
2007,07,10,11,01,23.30
2007,07,10,11,02,23.20
2007,07,10,11,03,23.20
2007,07,10,11,04,23.00
2007,07,10,11,05,22.90
2007,07,10,11,06,22.90
2007,07,10,11,07,23.00
2007,07,10,11,08,23.00
2007,07,10,11,09,22.90
2007,07,10,11,10,22.90
2007,07,10,11,11,22.80
2007,07,10,11,12,22.70
2007,07,10,11,13,22.60
2007,07,10,11,14,22.60
2007,07,10,11,15,22.80
2007,07,10,11,16,22.90
2007,07,10,11,17,23.00
2007,07,10,11,18,23.10
2007,07,10,11,19,23.20
2007,07,10,11,20,23.10
2007,07,10,11,21,23.10
2007,07,10,11,22,23.20
2007,07,10,11,23,23.30
2007,07,10,11,24,23.40
2007,07,10,11,25,23.30
2007,07,10,11,26,23.30
2007,07,10,11,27,23.20
2007,07,10,11,28,23.20
2007,07,10,11,29,23.20
2007,07,10,11,30,23.10
2007,07,10,11,31,23.20
2007,07,10,11,32,23.30
2007,07,10,11,33,23.30
2007,07,10,11,34,23.30
2007,07,10,11,35,23.30
2007,07,10,11,36,23.40
2007,07,10,11,37,23.50
2007,07,10,11,38,23.70
2007,07,10,11,39,23.90
2007,07,10,11,40,24.00
2007,07,10,11,41,24.10
2007,07,10,11,42,24.10
2007,07,10,11,43,24.00
2007,07,10,11,44,24.00
2007,07,10,11,45,24.00
2007,07,10,11,46,24.00
2007,07,10,11,47,24.00
2007,07,10,11,48,23.90
2007,07,10,11,49,24.00
2007,07,10,11,50,24.10
2007,07,10,11,51,24.10
2007,07,10,11,52,24.20
2007,07,10,11,53,24.30
2007,07,10,11,54,24.30
2007,07,10,11,55,24.30
2007,07,10,11,56,24.30
2007,07,10,11,57,24.20
2007,07,10,11,58,24.30
2007,07,10,11,59,24.30
2007,07,10,12,00,24.30
2007,07,10,12,01,24.30
2007,07,10,12,02,24.30
2007,07,10,12,03,24.20
2007,07,10,12,04,24.20
2007,07,10,12,05,24.20
2007,07,10,12,06,24.20
2007,07,10,12,07,24.20
2007,07,10,12,08,24.10
2007,07,10,12,09,24.10
2007,07,10,12,10,24.00
2007,07,10,12,11,24.00
2007,07,10,12,12,24.10
2007,07,10,12,13,24.10
2007,07,10,12,14,24.20
2007,07,10,12,15,24.20
2007,07,10,12,16,24.20
2007,07,10,12,17,24.20
2007,07,10,12,18,24.20
2007,07,10,12,19,24.20
2007,07,10,12,20,24.20
2007,07,10,12,21,24.10
2007,07,10,12,22,24.10
2007,07,10,12,23,24.00
2007,07,10,12,24,24.00
2007,07,10,12,25,24.10
2007,07,10,12,26,24.30
2007,07,10,12,27,24.40
2007,07,10,12,28,24.50
2007,07,10,12,29,24.60
2007,07,10,12,30,24.80
2007,07,10,12,31,24.90
2007,07,10,12,32,24.90
2007,07,10,12,33,24.90
2007,07,10,12,34,25.00
2007,07,10,12,35,25.10
2007,07,10,12,36,25.30
2007,07,10,12,37,25.40
2007,07,10,12,38,25.30
2007,07,10,12,39,25.20
2007,07,10,12,40,25.20
2007,07,10,12,41,25.20
2007,07,10,12,42,25.20
2007,07,10,12,43,25.20
2007,07,10,12,44,25.30
2007,07,10,12,45,25.30
2007,07,10,12,46,25.30
2007,07,10,12,47,25.20
2007,07,10,12,48,25.20
2007,07,10,12,49,25.20
2007,07,10,12,50,25.20
2007,07,10,12,51,25.30
2007,07,10,12,52,25.40
2007,07,10,12,53,25.40
2007,07,10,12,54,25.50
2007,07,10,12,55,25.60
2007,07,10,12,56,25.60
2007,07,10,12,57,25.50
2007,07,10,12,58,25.40
2007,07,10,12,59,25.30
2007,07,10,13,00,25.30
2007,07,10,13,01,25.40
2007,07,10,13,02,25.40
2007,07,10,13,03,25.40
2007,07,10,13,04,25.50
2007,07,10,13,05,25.60
2007,07,10,13,06,25.70
2007,07,10,13,07,25.80
2007,07,10,13,08,25.90
2007,07,10,13,09,25.90
2007,07,10,13,10,25.90
2007,07,10,13,11,25.90
2007,07,10,13,12,26.00
2007,07,10,13,13,26.00
2007,07,10,13,14,26.00
2007,07,10,13,15,25.90
2007,07,10,13,16,25.90
2007,07,10,13,17,26.00
2007,07,10,13,18,26.10
2007,07,10,13,19,26.10
2007,07,10,13,20,26.10
2007,07,10,13,21,26.20
2007,07,10,13,22,26.30
2007,07,10,13,23,26.30
2007,07,10,13,24,26.50
2007,07,10,13,25,26.60
2007,07,10,13,26,26.70
2007,07,10,13,27,26.70
2007,07,10,13,28,26.70
2007,07,10,13,29,26.70
2007,07,10,13,30,26.70
2007,07,10,13,31,26.70
2007,07,10,13,32,26.60
2007,07,10,13,33,26.60
2007,07,10,13,34,26.60
2007,07,10,13,35,26.50
2007,07,10,13,36,26.40
2007,07,10,13,37,26.40
2007,07,10,13,38,26.30
2007,07,10,13,39,26.40
2007,07,10,13,40,26.60
2007,07,10,13,41,26.70
2007,07,10,13,42,26.80
2007,07,10,13,43,27.00
2007,07,10,13,44,27.00
2007,07,10,13,45,27.10
2007,07,10,13,46,27.20
2007,07,10,13,47,27.30
2007,07,10,13,48,27.30
2007,07,10,13,49,27.30
2007,07,10,13,50,27.40
2007,07,10,13,51,27.50
2007,07,10,13,52,27.40
2007,07,10,13,53,27.30
2007,07,10,13,54,27.20
2007,07,10,13,55,27.20
2007,07,10,13,56,27.30
2007,07,10,13,57,27.40
2007,07,10,13,58,27.40
2007,07,10,13,59,27.60
2007,07,10,14,00,27.50
2007,07,10,14,01,27.30
2007,07,10,14,02,27.10
2007,07,10,14,03,27.10
2007,07,10,14,04,27.20
2007,07,10,14,05,27.30
2007,07,10,14,06,27.40
2007,07,10,14,07,27.40
2007,07,10,14,08,27.40
2007,07,10,14,09,27.50
2007,07,10,14,10,27.60
2007,07,10,14,11,27.70
2007,07,10,14,12,27.70
2007,07,10,14,13,27.90
2007,07,10,14,14,28.00
2007,07,10,14,15,28.10
2007,07,10,14,16,28.10
2007,07,10,14,17,28.10
2007,07,10,14,18,28.20
2007,07,10,14,19,28.30
2007,07,10,14,20,28.30
2007,07,10,14,21,28.30
2007,07,10,14,22,28.30
2007,07,10,14,23,28.20
2007,07,10,14,24,28.10
2007,07,10,14,25,28.10
2007,07,10,14,26,28.10
2007,07,10,14,27,28.10
2007,07,10,14,28,28.10
2007,07,10,14,29,28.00
2007,07,10,14,30,28.00
2007,07,10,14,31,28.10
2007,07,10,14,32,28.10
2007,07,10,14,33,28.10
2007,07,10,14,34,28.10
2007,07,10,14,35,28.10
2007,07,10,14,36,28.10
2007,07,10,14,37,28.10
2007,07,10,14,38,28.10
2007,07,10,14,39,28.00
2007,07,10,14,40,27.90
2007,07,10,14,41,27.80
2007,07,10,14,42,27.90
2007,07,10,14,43,28.00
2007,07,10,14,44,28.10
2007,07,10,14,45,28.10
2007,07,10,14,46,28.20
2007,07,10,14,47,28.40
2007,07,10,14,48,28.50
2007,07,10,14,49,28.60
2007,07,10,14,50,28.60
2007,07,10,14,51,28.70
2007,07,10,14,52,28.70
2007,07,10,14,53,28.80
2007,07,10,14,54,28.70
2007,07,10,14,55,28.80
2007,07,10,14,56,28.70
2007,07,10,14,57,28.60
2007,07,10,14,58,28.60
2007,07,10,14,59,28.50
2007,07,10,15,00,28.40
2007,07,10,15,01,28.40
2007,07,10,15,02,28.30
2007,07,10,15,03,28.20
2007,07,10,15,04,28.20
2007,07,10,15,05,28.20
2007,07,10,15,06,28.30
2007,07,10,15,07,28.40
2007,07,10,15,08,28.40
2007,07,10,15,09,28.40
2007,07,10,15,10,28.50
2007,07,10,15,11,28.60
2007,07,10,15,12,28.60
2007,07,10,15,13,28.50
2007,07,10,15,14,28.40
2007,07,10,15,15,28.30
2007,07,10,15,16,28.30
2007,07,10,15,17,28.20
2007,07,10,15,18,28.20
2007,07,10,15,19,28.10
2007,07,10,15,20,28.10
2007,07,10,15,21,28.10
2007,07,10,15,22,28.20
2007,07,10,15,23,28.30
2007,07,10,15,24,28.50
2007,07,10,15,25,28.70
2007,07,10,15,26,28.80
2007,07,10,15,27,28.90
2007,07,10,15,28,29.00
2007,07,10,15,29,29.00
2007,07,10,15,30,29.10
2007,07,10,15,31,29.10
2007,07,10,15,32,29.20
2007,07,10,15,33,29.20
2007,07,10,15,34,29.10
2007,07,10,15,35,29.00
2007,07,10,15,36,28.90
2007,07,10,15,37,29.00
2007,07,10,15,38,29.20
2007,07,10,15,39,29.30
2007,07,10,15,40,29.50
2007,07,10,15,41,29.60
2007,07,10,15,42,29.60
2007,07,10,15,43,29.60
2007,07,10,15,44,29.60
2007,07,10,15,45,29.60
2007,07,10,15,46,29.60
2007,07,10,15,47,29.40
2007,07,10,15,48,29.30
2007,07,10,15,49,29.10
2007,07,10,15,50,29.10
2007,07,10,15,51,29.00
2007,07,10,15,52,28.90
2007,07,10,15,53,29.00
2007,07,10,15,54,29.00
2007,07,10,15,55,29.00
2007,07,10,15,56,29.10
2007,07,10,15,57,29.10
2007,07,10,15,58,29.00
2007,07,10,15,59,29.00
2007,07,10,16,00,29.00
2007,07,10,16,01,29.00
2007,07,10,16,02,29.10
2007,07,10,16,03,29.20
2007,07,10,16,04,29.30
2007,07,10,16,05,29.40
2007,07,10,16,06,29.50
2007,07,10,16,07,29.60
2007,07,10,16,08,29.60
2007,07,10,16,09,29.70
2007,07,10,16,10,29.70
2007,07,10,16,11,29.80
2007,07,10,16,12,29.80
2007,07,10,16,13,29.90
2007,07,10,16,14,29.90
2007,07,10,16,15,30.00
2007,07,10,16,16,30.10
2007,07,10,16,17,30.10
2007,07,10,16,18,30.20
2007,07,10,16,19,30.20
2007,07,10,16,20,30.10
2007,07,10,16,21,30.10
2007,07,10,16,22,30.00
2007,07,10,16,23,29.90
2007,07,10,16,24,29.90
2007,07,10,16,25,29.90
2007,07,10,16,26,30.00
2007,07,10,16,27,30.00
2007,07,10,16,28,30.20
2007,07,10,16,29,30.30
2007,07,10,16,30,30.40
2007,07,10,16,31,30.40
2007,07,10,16,32,30.30
2007,07,10,16,33,30.10
2007,07,10,16,34,29.90
2007,07,10,16,35,29.80
2007,07,10,16,36,29.70
2007,07,10,16,37,29.70
2007,07,10,16,38,29.70
2007,07,10,16,39,29.80
2007,07,10,16,40,29.80
2007,07,10,16,41,29.90
2007,07,10,16,42,29.90
2007,07,10,16,43,30.00
2007,07,10,16,44,30.10
2007,07,10,16,45,30.10
2007,07,10,16,46,30.10
2007,07,10,16,47,30.20
2007,07,10,16,48,30.20
2007,07,10,16,49,30.30
2007,07,10,16,50,30.50
2007,07,10,16,51,30.60
2007,07,10,16,52,30.70
2007,07,10,16,53,30.70
2007,07,10,16,54,30.70
2007,07,10,16,55,30.70
2007,07,10,16,56,30.70
2007,07,10,16,57,30.60
2007,07,10,16,58,30.60
2007,07,10,16,59,30.50
2007,07,10,17,00,30.50
2007,07,10,17,01,30.60
2007,07,10,17,02,30.60
2007,07,10,17,03,30.60
2007,07,10,17,04,30.70
2007,07,10,17,05,30.70
2007,07,10,17,06,30.70
2007,07,10,17,07,30.60
2007,07,10,17,08,30.60
2007,07,10,17,09,30.50
2007,07,10,17,10,30.40
2007,07,10,17,11,30.40
2007,07,10,17,12,30.40
2007,07,10,17,13,30.40
2007,07,10,17,14,30.50
2007,07,10,17,15,30.50
2007,07,10,17,16,30.60
2007,07,10,17,17,30.60
2007,07,10,17,18,30.60
2007,07,10,17,19,30.60
2007,07,10,17,20,30.60
2007,07,10,17,21,30.60